"read_dt","SO2 (ppb)","flags","PMT voltage (V)","lamp voltage (V)","lamp intensity (Hz)","internal temp (C)","react chamber temp (C)","sample flow (l/min)","pres (mmHg)","SO2 bkg (ppb)","SO2 coefficient"
2015-09-11 00:00:00,2223E-3,5C000400,-0724,0822,12320,028.2,045.4,0.256,750.3,01.17,0.508
2015-09-11 00:01:00,2185E-3,5C000400,-0724,0822,12377,028.1,045.4,0.256,750.3,01.17,0.508
2015-09-11 00:02:00,2129E-3,5C000400,-0724,0822,12321,028.1,045.5,0.256,750.3,01.17,0.508
2015-09-11 00:03:00,2126E-3,5C000400,-0724,0823,12285,028.1,045.5,0.256,750.3,01.17,0.508
2015-09-11 00:04:00,2129E-3,5C000400,-0724,0822,12330,028.1,045.5,0.256,750.3,01.17,0.508
2015-09-11 00:05:00,2117E-3,5C000400,-0724,0822,12310,028.1,045.5,0.256,750.3,01.17,0.508
2015-09-11 00:06:00,2152E-3,5C000400,-0724,0822,12257,028.2,045.5,0.256,750.2,01.17,0.508
2015-09-11 00:07:00,2078E-3,5C000400,-0724,0822,12299,028.2,045.5,0.256,750.2,01.17,0.508
2015-09-11 00:08:00,2131E-3,5C000400,-0724,0822,12331,028.2,045.4,0.256,750.2,01.17,0.508
2015-09-11 00:09:00,2030E-3,5C000400,-0724,0823,12303,028.1,045.5,0.256,750.2,01.17,0.508
2015-09-11 00:10:00,2060E-3,5C000400,-0724,0822,12381,028.1,045.5,0.256,750.2,01.17,0.508
2015-09-11 00:11:00,2088E-3,5C000400,-0724,0823,12352,028.0,045.5,0.256,750.2,01.17,0.508
2015-09-11 00:12:00,2100E-3,5C000400,-0724,0822,12388,028.0,045.4,0.256,750.2,01.17,0.508
2015-09-11 00:13:00,2169E-3,5C000400,-0724,0822,12313,028.1,045.5,0.256,750.1,01.17,0.508
2015-09-11 00:14:00,2190E-3,5C000400,-0724,0822,12273,028.2,045.5,0.256,750.1,01.17,0.508
2015-09-11 00:15:00,2083E-3,5C000400,-0724,0822,12215,028.3,045.5,0.257,750.1,01.17,0.508
2015-09-11 00:16:00,2049E-3,5C000400,-0724,0821,12183,028.3,045.5,0.256,750.0,01.17,0.508
2015-09-11 00:17:00,2222E-3,5C000400,-0724,0823,12299,028.2,045.5,0.256,750.1,01.17,0.508
2015-09-11 00:18:00,2211E-3,5C000400,-0724,0822,12267,028.2,045.5,0.256,750.1,01.17,0.508
2015-09-11 00:19:00,2087E-3,5C000400,-0724,0822,12174,028.1,045.5,0.256,750.1,01.17,0.508
2015-09-11 00:20:00,2133E-3,5C000400,-0724,0822,12280,028.1,045.4,0.256,750.1,01.17,0.508
2015-09-11 00:21:00,2147E-3,5C000400,-0724,0822,12208,028.0,045.5,0.256,750.1,01.17,0.508
2015-09-11 00:22:00,2003E-3,5C000400,-0724,0822,12359,028.1,045.5,0.256,750.1,01.17,0.508
2015-09-11 00:23:00,2165E-3,5C000400,-0724,0822,12218,028.1,045.5,0.256,750.1,01.17,0.508
2015-09-11 00:24:00,2173E-3,5C000400,-0724,0822,12395,028.2,045.5,0.256,750.1,01.17,0.508
2015-09-11 00:25:00,2193E-3,5C000400,-0724,0821,12346,028.3,045.5,0.256,750.0,01.17,0.508
2015-09-11 00:26:00,2066E-3,5C000400,-0724,0822,12391,028.3,045.4,0.256,750.0,01.17,0.508
2015-09-11 00:27:00,2197E-3,5C000400,-0724,0821,12324,028.2,045.4,0.256,750.1,01.17,0.508
2015-09-11 00:28:00,2192E-3,5C000400,-0724,0821,12318,028.1,045.5,0.256,750.1,01.17,0.508
2015-09-11 00:29:00,2127E-3,5C000400,-0724,0822,12330,028.1,045.5,0.256,750.1,01.17,0.508
2015-09-11 00:30:00,2186E-3,5C000400,-0724,0822,12237,028.1,045.5,0.256,750.0,01.17,0.508
2015-09-11 00:31:00,2045E-3,5C000400,-0724,0822,12279,028.0,045.5,0.256,750.0,01.17,0.508
2015-09-11 00:32:00,2150E-3,5C000400,-0724,0822,12266,028.1,045.5,0.256,750.0,01.17,0.508
2015-09-11 00:33:00,2101E-3,5C000400,-0724,0822,12225,028.2,045.5,0.256,750.0,01.17,0.508
2015-09-11 00:34:00,2100E-3,5C000400,-0724,0822,12225,028.3,045.5,0.256,749.9,01.17,0.508
2015-09-11 00:35:00,2234E-3,5C000400,-0724,0822,12315,028.3,045.5,0.256,749.9,01.17,0.508
2015-09-11 00:36:00,2171E-3,5C000400,-0724,0822,12295,028.3,045.5,0.256,749.9,01.17,0.508
2015-09-11 00:37:00,2188E-3,5C000400,-0724,0822,12194,028.2,045.5,0.256,749.9,01.17,0.508
2015-09-11 00:38:00,2115E-3,5C000400,-0724,0822,12326,028.2,045.5,0.256,749.9,01.17,0.508
2015-09-11 00:39:00,2112E-3,5C000400,-0724,0821,12210,028.2,045.5,0.256,749.9,01.17,0.508
2015-09-11 00:40:00,2124E-3,5C000400,-0724,0822,12188,028.1,045.5,0.256,749.9,01.17,0.508
2015-09-11 00:41:00,2064E-3,5C000400,-0724,0822,12172,028.1,045.5,0.256,749.9,01.17,0.508
2015-09-11 00:42:00,2042E-3,5C000400,-0724,0822,12233,028.1,045.4,0.256,749.9,01.17,0.508
2015-09-11 00:43:00,1990E-3,5C000400,-0724,0822,12251,028.1,045.4,0.256,749.9,01.17,0.508
2015-09-11 00:44:00,2180E-3,5C000400,-0724,0822,12121,028.1,045.5,0.256,749.9,01.17,0.508
2015-09-11 00:45:00,2202E-3,5C000400,-0724,0822,12159,028.1,045.5,0.256,749.9,01.17,0.508
2015-09-11 00:46:00,2167E-3,5C000400,-0724,0822,12152,028.2,045.5,0.256,749.9,01.17,0.508
2015-09-11 00:47:00,1965E-3,5C000400,-0724,0821,12308,028.2,045.5,0.256,749.9,01.17,0.508
2015-09-11 00:48:00,2051E-3,5C000400,-0724,0822,12254,028.2,045.5,0.256,749.9,01.17,0.508
2015-09-11 00:49:00,2049E-3,5C000400,-0724,0822,12270,028.2,045.5,0.256,749.9,01.17,0.508
2015-09-11 00:50:00,2296E-3,5C000400,-0724,0822,12232,028.2,045.5,0.256,749.9,01.17,0.508
2015-09-11 00:51:00,2090E-3,5C000400,-0724,0822,12343,028.2,045.5,0.256,749.8,01.17,0.508
2015-09-11 00:52:00,2212E-3,5C000400,-0724,0821,12316,028.2,045.5,0.256,749.9,01.17,0.508
2015-09-11 00:53:00,2069E-3,5C000400,-0724,0821,12378,028.1,045.5,0.256,749.8,01.17,0.508
2015-09-11 00:54:00,2034E-3,5C000400,-0724,0822,12213,028.1,045.4,0.256,749.8,01.17,0.508
2015-09-11 00:55:00,2187E-3,5C000400,-0724,0822,12269,028.1,045.5,0.256,749.8,01.17,0.508
2015-09-11 00:56:00,1915E-3,5C000400,-0724,0822,12397,028.0,045.5,0.256,749.8,01.17,0.508
2015-09-11 00:57:00,2000E-3,5C000400,-0724,0821,12281,028.0,045.5,0.256,749.8,01.17,0.508
2015-09-11 00:58:00,2259E-3,5C000400,-0724,0822,12213,028.1,045.5,0.256,749.8,01.17,0.508
2015-09-11 00:59:00,2073E-3,5C000400,-0724,0822,12279,028.2,045.5,0.256,749.7,01.17,0.508
2015-09-11 01:00:00,2167E-3,5C000400,-0724,0821,12294,028.2,045.5,0.256,749.7,01.17,0.508
2015-09-11 01:01:00,2200E-3,5C000400,-0724,0823,12238,028.2,045.5,0.256,749.8,01.17,0.508
2015-09-11 01:02:00,2108E-3,5C000400,-0724,0822,12104,028.2,045.5,0.256,749.7,01.17,0.508
2015-09-11 01:03:00,2089E-3,5C000400,-0724,0822,12185,028.1,045.5,0.256,749.7,01.17,0.508
2015-09-11 01:04:00,2111E-3,5C000400,-0724,0822,12297,028.1,045.4,0.256,749.7,01.17,0.508
2015-09-11 01:05:00,2121E-3,5C000400,-0724,0822,12325,028.1,045.4,0.256,749.7,01.17,0.508
2015-09-11 01:06:00,2004E-3,5C000400,-0724,0822,12354,028.1,045.5,0.256,749.7,01.17,0.508
2015-09-11 01:07:00,2013E-3,5C000400,-0724,0823,12289,028.1,045.5,0.256,749.7,01.17,0.508
2015-09-11 01:08:00,2214E-3,5C000400,-0724,0822,12205,028.2,045.5,0.256,749.7,01.17,0.508
2015-09-11 01:09:00,2129E-3,5C000400,-0724,0822,12200,028.2,045.5,0.256,749.7,01.17,0.508
2015-09-11 01:10:00,2047E-3,5C000400,-0724,0822,12275,028.3,045.5,0.256,749.7,01.17,0.508
2015-09-11 01:11:00,2126E-3,5C000400,-0724,0822,12274,028.2,045.5,0.256,749.7,01.17,0.508
2015-09-11 01:12:00,2072E-3,5C000400,-0724,0822,12160,028.2,045.5,0.256,749.8,01.17,0.508
2015-09-11 01:13:00,2213E-3,5C000400,-0724,0822,12169,028.1,045.4,0.256,749.7,01.17,0.508
2015-09-11 01:14:00,2109E-3,5C000400,-0724,0822,12276,028.1,045.5,0.256,749.7,01.17,0.508
2015-09-11 01:15:00,2056E-3,5C000400,-0724,0823,12227,028.1,045.4,0.256,749.7,01.17,0.508
2015-09-11 01:16:00,2042E-3,5C000400,-0724,0821,12176,028.1,045.5,0.256,749.6,01.17,0.508
2015-09-11 01:17:00,2072E-3,5C000400,-0724,0822,12328,028.1,045.5,0.256,749.7,01.17,0.508
2015-09-11 01:18:00,2126E-3,5C000400,-0724,0821,12404,028.2,045.5,0.256,749.7,01.17,0.508
2015-09-11 01:19:00,2062E-3,5C000400,-0724,0822,12207,028.2,045.5,0.256,749.6,01.17,0.508
2015-09-11 01:20:00,2143E-3,5C000400,-0724,0822,12246,028.1,045.5,0.256,749.6,01.17,0.508
2015-09-11 01:21:00,2126E-3,5C000400,-0724,0821,12391,028.1,045.5,0.256,749.6,01.17,0.508
2015-09-11 01:22:00,2176E-3,5C000400,-0724,0822,12483,028.0,045.4,0.256,749.6,01.17,0.508
2015-09-11 01:23:00,2090E-3,5C000400,-0724,0822,12299,028.0,045.4,0.256,749.6,01.17,0.508
2015-09-11 01:24:00,1998E-3,5C000400,-0724,0822,12242,028.0,045.5,0.256,749.6,01.17,0.508
2015-09-11 01:25:00,2159E-3,5C000400,-0724,0822,12307,028.0,045.4,0.256,749.6,01.17,0.508
2015-09-11 01:26:00,2048E-3,5C000400,-0724,0822,12285,028.0,045.5,0.256,749.5,01.17,0.508
2015-09-11 01:27:00,2029E-3,5C000400,-0724,0823,12295,028.2,045.5,0.256,749.5,01.17,0.508
2015-09-11 01:28:00,2217E-3,5C000400,-0724,0822,12191,028.2,045.5,0.256,749.6,01.17,0.508
2015-09-11 01:29:00,2078E-3,5C000400,-0724,0821,12231,028.3,045.5,0.256,749.6,01.17,0.508
2015-09-11 01:30:00,2087E-3,5C000400,-0724,0821,12215,028.3,045.5,0.256,749.6,01.17,0.508
2015-09-11 01:31:00,2213E-3,5C000400,-0724,0822,12371,028.3,045.5,0.256,749.5,01.17,0.508
2015-09-11 01:32:00,2121E-3,5C000400,-0724,0822,12294,028.2,045.5,0.256,749.5,01.17,0.508
2015-09-11 01:33:00,1983E-3,5C000400,-0724,0822,12154,028.2,045.4,0.256,749.5,01.17,0.508
2015-09-11 01:34:00,2266E-3,5C000400,-0724,0822,12237,028.1,045.4,0.256,749.6,01.17,0.508
2015-09-11 01:35:00,2143E-3,5C000400,-0724,0822,12278,028.1,045.5,0.256,749.5,01.17,0.508
2015-09-11 01:36:00,2135E-3,5C000400,-0724,0822,12250,028.2,045.5,0.256,749.5,01.17,0.508
2015-09-11 01:37:00,2039E-3,5C000400,-0724,0821,12268,028.2,045.5,0.256,749.5,01.17,0.508
2015-09-11 01:38:00,2197E-3,5C000400,-0724,0822,12239,028.3,045.4,0.256,749.5,01.17,0.508
2015-09-11 01:39:00,2002E-3,5C000400,-0724,0821,12288,028.3,045.4,0.256,749.5,01.17,0.508
2015-09-11 01:40:00,2189E-3,5C000400,-0724,0821,12134,028.3,045.5,0.256,749.4,01.17,0.508
2015-09-11 01:41:00,2088E-3,5C000400,-0724,0822,12257,028.2,045.5,0.255,749.4,01.17,0.508
2015-09-11 01:42:00,2079E-3,5C000400,-0724,0823,12282,028.2,045.5,0.256,749.4,01.17,0.508
2015-09-11 01:43:00,2132E-3,5C000400,-0724,0821,12152,028.1,045.4,0.256,749.4,01.17,0.508
2015-09-11 01:44:00,2045E-3,5C000400,-0724,0823,12285,028.1,045.4,0.256,749.4,01.17,0.508
2015-09-11 01:45:00,2167E-3,5C000400,-0724,0822,12099,028.1,045.4,0.256,749.4,01.17,0.508
2015-09-11 01:46:00,2132E-3,5C000400,-0724,0822,12180,028.1,045.5,0.256,749.4,01.17,0.508
2015-09-11 01:47:00,2049E-3,5C000400,-0724,0822,12158,028.1,045.5,0.256,749.4,01.17,0.508
2015-09-11 01:48:00,2069E-3,5C000400,-0724,0822,12251,028.2,045.5,0.256,749.4,01.17,0.508
2015-09-11 01:49:00,1985E-3,5C000400,-0724,0822,12237,028.3,045.5,0.256,749.4,01.17,0.508
2015-09-11 01:50:00,2098E-3,5C000400,-0724,0822,12350,028.3,045.5,0.256,749.4,01.17,0.508
2015-09-11 01:51:00,2110E-3,5C000400,-0724,0822,12386,028.3,045.5,0.256,749.4,01.17,0.508
2015-09-11 01:52:00,2161E-3,5C000400,-0724,0822,12330,028.3,045.5,0.256,749.4,01.17,0.508
2015-09-11 01:53:00,2158E-3,5C000400,-0724,0822,12197,028.2,045.4,0.256,749.4,01.17,0.508
2015-09-11 01:54:00,2105E-3,5C000400,-0724,0821,12215,028.1,045.4,0.256,749.4,01.17,0.508
2015-09-11 01:55:00,2122E-3,5C000400,-0724,0822,12216,028.1,045.4,0.256,749.4,01.17,0.508
2015-09-11 01:56:00,2108E-3,5C000400,-0724,0822,12169,028.1,045.5,0.256,749.3,01.17,0.508
2015-09-11 01:57:00,2107E-3,5C000400,-0724,0822,12354,028.1,045.5,0.256,749.3,01.17,0.508
2015-09-11 01:58:00,2105E-3,5C000400,-0724,0822,12439,028.1,045.5,0.256,749.3,01.17,0.508
2015-09-11 01:59:00,2210E-3,5C000400,-0724,0821,12324,028.1,045.4,0.256,749.3,01.17,0.508
2015-09-11 02:00:00,2055E-3,5C000400,-0724,0823,12127,028.2,045.4,0.256,749.3,01.17,0.508
2015-09-11 02:01:00,2217E-3,5C000400,-0724,0822,12241,028.2,045.5,0.256,749.3,01.17,0.508
2015-09-11 02:02:00,2219E-3,5C000400,-0724,0822,12202,028.3,045.4,0.256,749.3,01.17,0.508
2015-09-11 02:03:00,2210E-3,5C000400,-0724,0822,12297,028.3,045.4,0.256,749.3,01.17,0.508
2015-09-11 02:04:00,2193E-3,5C000400,-0724,0822,12308,028.2,045.4,0.256,749.3,01.17,0.508
2015-09-11 02:05:00,2176E-3,5C000400,-0724,0822,12381,028.2,045.4,0.256,749.3,01.17,0.508
2015-09-11 02:06:00,2099E-3,5C000400,-0724,0823,12216,028.1,045.5,0.256,749.3,01.17,0.508
2015-09-11 02:07:00,2065E-3,5C000400,-0724,0822,12160,028.1,045.4,0.256,749.3,01.17,0.508
2015-09-11 02:08:00,2008E-3,5C000400,-0724,0822,12191,028.1,045.5,0.256,749.3,01.17,0.508
2015-09-11 02:09:00,2210E-3,5C000400,-0724,0822,12262,028.1,045.5,0.256,749.3,01.17,0.508
2015-09-11 02:10:00,2164E-3,5C000400,-0724,0822,12223,028.1,045.5,0.256,749.3,01.17,0.508
2015-09-11 02:11:00,2256E-3,5C000400,-0724,0823,12233,028.1,045.5,0.256,749.2,01.17,0.508
2015-09-11 02:12:00,2028E-3,5C000400,-0724,0821,12054,028.2,045.5,0.256,749.2,01.17,0.508
2015-09-11 02:13:00,2129E-3,5C000400,-0724,0823,12375,028.2,045.4,0.256,749.2,01.17,0.508
2015-09-11 02:14:00,2102E-3,5C000400,-0724,0822,12336,028.2,045.5,0.257,749.1,01.17,0.508
2015-09-11 02:15:00,2099E-3,5C000400,-0724,0822,12231,028.2,045.5,0.256,749.1,01.17,0.508
2015-09-11 02:16:00,2142E-3,5C000400,-0724,0822,12249,028.1,045.5,0.256,749.1,01.17,0.508
2015-09-11 02:17:00,2253E-3,5C000400,-0724,0822,12342,028.1,045.4,0.256,749.2,01.17,0.508
2015-09-11 02:18:00,1971E-3,5C000400,-0724,0822,12177,028.0,045.4,0.256,749.2,01.17,0.508
2015-09-11 02:19:00,2014E-3,5C000400,-0724,0822,12253,028.0,045.4,0.256,749.2,01.17,0.508
2015-09-11 02:20:00,2034E-3,5C000400,-0724,0822,12312,028.0,045.5,0.256,749.2,01.17,0.508
2015-09-11 02:21:00,2109E-3,5C000400,-0724,0823,12330,028.1,045.5,0.256,749.2,01.17,0.508
2015-09-11 02:22:00,2119E-3,5C000400,-0724,0822,12204,028.2,045.5,0.256,749.2,01.17,0.508
2015-09-11 02:23:00,2173E-3,5C000400,-0724,0822,12265,028.3,045.5,0.256,749.1,01.17,0.508
2015-09-11 02:24:00,2211E-3,5C000400,-0724,0822,12329,028.3,045.5,0.256,749.1,01.17,0.508
2015-09-11 02:25:00,2070E-3,5C000400,-0724,0823,12161,028.4,045.5,0.256,749.1,01.17,0.508
2015-09-11 02:26:00,2170E-3,5C000400,-0724,0823,12310,028.4,045.5,0.256,749.1,01.17,0.508
2015-09-11 02:27:00,2170E-3,5C000400,-0724,0823,12142,028.3,045.5,0.256,749.1,01.17,0.508
2015-09-11 02:28:00,2157E-3,5C000400,-0724,0822,12338,028.2,045.4,0.256,749.1,01.17,0.508
2015-09-11 02:29:00,2083E-3,5C000400,-0724,0822,12365,028.2,045.5,0.256,749.1,01.17,0.508
2015-09-11 02:30:00,2049E-3,5C000400,-0724,0822,12202,028.2,045.5,0.255,749.1,01.17,0.508
2015-09-11 02:31:00,2037E-3,5C000400,-0724,0822,12299,028.2,045.5,0.256,749.1,01.17,0.508
2015-09-11 02:32:00,2152E-3,5C000400,-0724,0822,12264,028.2,045.5,0.256,749.1,01.17,0.508
2015-09-11 02:33:00,2169E-3,5C000400,-0724,0822,12247,028.1,045.4,0.256,749.1,01.17,0.508
2015-09-11 02:34:00,2232E-3,5C000400,-0724,0822,12376,028.2,045.5,0.256,749.0,01.17,0.508
2015-09-11 02:35:00,2102E-3,5C000400,-0724,0822,12275,028.3,045.5,0.256,749.0,01.17,0.508
2015-09-11 02:36:00,2325E-3,5C000400,-0724,0822,12215,028.2,045.5,0.256,749.0,01.17,0.508
2015-09-11 02:37:00,2108E-3,5C000400,-0724,0822,12333,028.2,045.4,0.256,749.0,01.17,0.508
2015-09-11 02:38:00,2089E-3,5C000400,-0724,0822,12298,028.1,045.4,0.256,749.0,01.17,0.508
2015-09-11 02:39:00,2121E-3,5C000400,-0724,0822,12299,028.0,045.4,0.256,749.0,01.17,0.508
2015-09-11 02:40:00,2048E-3,5C000400,-0724,0822,12213,028.1,045.5,0.256,749.0,01.17,0.508
2015-09-11 02:41:00,2024E-3,5C000400,-0724,0822,12410,028.0,045.5,0.256,749.0,01.17,0.508
2015-09-11 02:42:00,2218E-3,5C000400,-0724,0822,12388,028.0,045.4,0.256,749.0,01.17,0.508
2015-09-11 02:43:00,1949E-3,5C000400,-0724,0822,12211,028.1,045.5,0.256,748.9,01.17,0.508
2015-09-11 02:44:00,2126E-3,5C000400,-0724,0822,12262,028.3,045.5,0.256,748.9,01.17,0.508
2015-09-11 02:45:00,2020E-3,5C000400,-0724,0823,12314,028.3,045.5,0.256,748.9,01.17,0.508
2015-09-11 02:46:00,2156E-3,5C000400,-0724,0823,12031,028.3,045.5,0.256,748.9,01.17,0.508
2015-09-11 02:47:00,2075E-3,5C000400,-0724,0822,12326,028.3,045.5,0.256,748.9,01.17,0.508
2015-09-11 02:48:00,2028E-3,5C000400,-0724,0822,12414,028.2,045.4,0.256,749.0,01.17,0.508
2015-09-11 02:49:00,1958E-3,5C000400,-0724,0822,12304,028.2,045.5,0.256,748.9,01.17,0.508
2015-09-11 02:50:00,2012E-3,5C000400,-0724,0822,12319,028.2,045.4,0.256,748.9,01.17,0.508
2015-09-11 02:51:00,2095E-3,5C000400,-0724,0822,12291,028.1,045.5,0.256,749.0,01.17,0.508
2015-09-11 02:52:00,2246E-3,5C000400,-0724,0823,12234,028.0,045.5,0.256,748.9,01.17,0.508
2015-09-11 02:53:00,2045E-3,5C000400,-0724,0823,12120,028.1,045.5,0.256,748.9,01.17,0.508
2015-09-11 02:54:00,2055E-3,5C000400,-0724,0822,12405,028.1,045.5,0.256,748.9,01.17,0.508
2015-09-11 02:55:00,2043E-3,5C000400,-0724,0822,12161,028.2,045.5,0.256,748.9,01.17,0.508
2015-09-11 02:56:00,2166E-3,5C000400,-0724,0822,12337,028.3,045.5,0.256,748.9,01.17,0.508
2015-09-11 02:57:00,1992E-3,5C000400,-0724,0823,12368,028.3,045.4,0.256,748.9,01.17,0.508
2015-09-11 02:58:00,2150E-3,5C000400,-0724,0822,12368,028.3,045.5,0.256,748.9,01.17,0.508
2015-09-11 02:59:00,2069E-3,5C000400,-0724,0823,12159,028.2,045.5,0.256,748.9,01.17,0.508
2015-09-11 03:00:00,2067E-3,5C000400,-0724,0822,12279,028.2,045.5,0.256,748.9,01.17,0.508
2015-09-11 03:01:00,2235E-3,5C000400,-0724,0822,12237,028.2,045.4,0.256,748.9,01.17,0.508
2015-09-11 03:02:00,2232E-3,5C000400,-0724,0822,12364,028.1,045.5,0.256,748.9,01.17,0.508
2015-09-11 03:03:00,2036E-3,5C000400,-0724,0822,12204,028.1,045.5,0.256,748.9,01.17,0.508
2015-09-11 03:04:00,2193E-3,5C000400,-0724,0822,12310,028.0,045.5,0.256,748.9,01.17,0.508
2015-09-11 03:05:00,2243E-3,5C000400,-0724,0822,12307,028.1,045.5,0.256,748.9,01.17,0.508
2015-09-11 03:06:00,2015E-3,5C000400,-0724,0822,12248,028.1,045.4,0.256,748.9,01.17,0.508
2015-09-11 03:07:00,2102E-3,5C000400,-0724,0823,12353,028.1,045.5,0.256,748.8,01.17,0.508
2015-09-11 03:08:00,2150E-3,5C000400,-0724,0822,12329,028.2,045.5,0.256,748.8,01.17,0.508
2015-09-11 03:09:00,2190E-3,5C000400,-0724,0823,12297,028.3,045.5,0.256,748.8,01.17,0.508
2015-09-11 03:10:00,2133E-3,5C000400,-0724,0822,12331,028.3,045.5,0.256,748.8,01.17,0.508
2015-09-11 03:11:00,2174E-3,5C000400,-0724,0822,12293,028.3,045.5,0.256,748.8,01.17,0.508
2015-09-11 03:12:00,2058E-3,5C000400,-0724,0822,12175,028.3,045.5,0.256,748.8,01.17,0.508
2015-09-11 03:13:00,2155E-3,5C000400,-0724,0822,12224,028.2,045.5,0.256,748.7,01.17,0.508
2015-09-11 03:14:00,2126E-3,5C000400,-0724,0823,12330,028.1,045.5,0.256,748.7,01.17,0.508
2015-09-11 03:15:00,2182E-3,5C000400,-0724,0823,12258,028.1,045.5,0.256,748.7,01.17,0.508
2015-09-11 03:16:00,2076E-3,5C000400,-0724,0822,12286,028.1,045.5,0.256,748.7,01.17,0.508
2015-09-11 03:17:00,2104E-3,5C000400,-0724,0823,12338,028.1,045.5,0.256,748.7,01.17,0.508
2015-09-11 03:18:00,2083E-3,5C000400,-0724,0822,12242,028.1,045.5,0.256,748.7,01.17,0.508
2015-09-11 03:19:00,2144E-3,5C000400,-0724,0823,12264,028.2,045.5,0.256,748.7,01.17,0.508
2015-09-11 03:20:00,2184E-3,5C000400,-0724,0823,12159,028.3,045.5,0.256,748.7,01.17,0.508
2015-09-11 03:21:00,2135E-3,5C000400,-0724,0822,12301,028.3,045.5,0.256,748.6,01.17,0.508
2015-09-11 03:22:00,2142E-3,5C000400,-0724,0822,12176,028.3,045.5,0.256,748.7,01.17,0.508
2015-09-11 03:23:00,2155E-3,5C000400,-0724,0822,12233,028.3,045.5,0.256,748.7,01.17,0.508
2015-09-11 03:24:00,2053E-3,5C000400,-0724,0822,12269,028.2,045.4,0.256,748.7,01.17,0.508
2015-09-11 03:25:00,2024E-3,5C000400,-0724,0822,12336,028.2,045.5,0.256,748.7,01.17,0.508
2015-09-11 03:26:00,1961E-3,5C000400,-0724,0822,12153,028.2,045.5,0.256,748.7,01.17,0.508
2015-09-11 03:27:00,2057E-3,5C000400,-0724,0822,12320,028.1,045.5,0.256,748.7,01.17,0.508
2015-09-11 03:28:00,2239E-3,5C000400,-0724,0822,12287,028.1,045.5,0.255,748.7,01.17,0.508
2015-09-11 03:29:00,2131E-3,5C000400,-0724,0823,12310,028.1,045.5,0.256,748.6,01.17,0.508
2015-09-11 03:30:00,2154E-3,5C000400,-0724,0823,12307,028.1,045.4,0.256,748.6,01.17,0.508
2015-09-11 03:31:00,2130E-3,5C000400,-0724,0822,12278,028.1,045.5,0.256,748.6,01.17,0.508
2015-09-11 03:32:00,2197E-3,5C000400,-0724,0822,12198,028.2,045.5,0.256,748.5,01.17,0.508
2015-09-11 03:33:00,1949E-3,5C000400,-0724,0822,12200,028.2,045.5,0.256,748.5,01.17,0.508
2015-09-11 03:34:00,2187E-3,5C000400,-0724,0822,12294,028.2,045.4,0.256,748.5,01.17,0.508
2015-09-11 03:35:00,2198E-3,5C000400,-0724,0822,12337,028.2,045.5,0.256,748.5,01.17,0.508
2015-09-11 03:36:00,2164E-3,5C000400,-0724,0822,12293,028.1,045.4,0.256,748.4,01.17,0.508
2015-09-11 03:37:00,2226E-3,5C000400,-0724,0822,12277,028.1,045.5,0.256,748.4,01.17,0.508
2015-09-11 03:38:00,2187E-3,5C000400,-0724,0822,12262,028.1,045.5,0.256,748.5,01.17,0.508
2015-09-11 03:39:00,2204E-3,5C000400,-0724,0822,12255,028.1,045.5,0.256,748.5,01.17,0.508
2015-09-11 03:40:00,2072E-3,5C000400,-0724,0821,12331,028.1,045.5,0.256,748.4,01.17,0.508
2015-09-11 03:41:00,2256E-3,5C000400,-0724,0822,12289,028.2,045.5,0.256,748.4,01.17,0.508
2015-09-11 03:42:00,2132E-3,5C000400,-0724,0821,12291,028.2,045.5,0.256,748.4,01.17,0.508
2015-09-11 03:43:00,2179E-3,5C000400,-0724,0822,12365,028.1,045.5,0.256,748.4,01.17,0.508
2015-09-11 03:44:00,2107E-3,5C000400,-0724,0821,12237,028.1,045.5,0.256,748.4,01.17,0.508
2015-09-11 03:45:00,2164E-3,5C000400,-0724,0821,12171,028.1,045.5,0.256,748.4,01.17,0.508
2015-09-11 03:46:00,2173E-3,5C000400,-0724,0821,12233,028.0,045.5,0.256,748.4,01.17,0.508
2015-09-11 03:47:00,2050E-3,5C000400,-0724,0821,12346,028.0,045.5,0.256,748.3,01.17,0.508
2015-09-11 03:48:00,2107E-3,5C000400,-0724,0821,12300,028.0,045.5,0.256,748.3,01.17,0.508
2015-09-11 03:49:00,2212E-3,5C000400,-0724,0823,12368,028.0,045.5,0.256,748.3,01.17,0.508
2015-09-11 03:50:00,2246E-3,5C000400,-0724,0822,12235,028.0,045.4,0.256,748.3,01.17,0.508
2015-09-11 03:51:00,2104E-3,5C000400,-0724,0822,12314,028.1,045.5,0.256,748.3,01.17,0.508
2015-09-11 03:52:00,2152E-3,5C000400,-0724,0822,12263,028.1,045.5,0.256,748.3,01.17,0.508
2015-09-11 03:53:00,2251E-3,5C000400,-0724,0822,12151,028.1,045.5,0.256,748.3,01.17,0.508
2015-09-11 03:54:00,2121E-3,5C000400,-0724,0822,12187,028.2,045.5,0.256,748.3,01.17,0.508
2015-09-11 03:55:00,2124E-3,5C000400,-0724,0823,12412,028.2,045.5,0.256,748.3,01.17,0.508
2015-09-11 03:56:00,2243E-3,5C000400,-0724,0821,12202,028.2,045.5,0.256,748.3,01.17,0.508
2015-09-11 03:57:00,2196E-3,5C000400,-0724,0822,12174,028.1,045.5,0.256,748.3,01.17,0.508
2015-09-11 03:58:00,2025E-3,5C000400,-0724,0823,12363,028.1,045.5,0.256,748.3,01.17,0.508
2015-09-11 03:59:00,2139E-3,5C000400,-0724,0822,12194,028.0,045.4,0.256,748.3,01.17,0.508
2015-09-11 04:00:00,2125E-3,5C000400,-0724,0822,12309,028.0,045.5,0.256,748.3,01.17,0.508
2015-09-11 04:01:00,2184E-3,5C000400,-0724,0822,12256,027.9,045.5,0.256,748.2,01.17,0.508
2015-09-11 04:02:00,2111E-3,5C000400,-0724,0822,12261,027.9,045.5,0.256,748.2,01.17,0.508
2015-09-11 04:03:00,2057E-3,5C000400,-0724,0822,12331,027.9,045.4,0.256,748.2,01.17,0.508
2015-09-11 04:04:00,2149E-3,5C000400,-0724,0822,12195,028.1,045.4,0.256,748.2,01.17,0.508
2015-09-11 04:05:00,2134E-3,5C000400,-0724,0821,12320,028.1,045.5,0.256,748.2,01.17,0.508
2015-09-11 04:06:00,1948E-3,5C000400,-0724,0822,12197,028.2,045.5,0.256,748.1,01.17,0.508
2015-09-11 04:07:00,2052E-3,5C000400,-0724,0822,12294,028.2,045.5,0.256,748.2,01.17,0.508
2015-09-11 04:08:00,2101E-3,5C000400,-0724,0822,12216,028.2,045.4,0.256,748.2,01.17,0.508
2015-09-11 04:09:00,2223E-3,5C000400,-0724,0822,12291,028.1,045.4,0.256,748.2,01.17,0.508
2015-09-11 04:10:00,2149E-3,5C000400,-0724,0822,12383,028.1,045.4,0.256,748.1,01.17,0.508
2015-09-11 04:11:00,2134E-3,5C000400,-0724,0822,12174,028.0,045.5,0.256,748.1,01.17,0.508
2015-09-11 04:12:00,2279E-3,5C000400,-0724,0823,12339,028.0,045.4,0.256,748.1,01.17,0.508
2015-09-11 04:13:00,2103E-3,5C000400,-0724,0821,12396,028.0,045.5,0.256,748.1,01.17,0.508
2015-09-11 04:14:00,2031E-3,5C000400,-0724,0822,12307,028.0,045.5,0.257,748.1,01.17,0.508
2015-09-11 04:15:00,2150E-3,5C000400,-0724,0822,12329,028.0,045.5,0.256,748.0,01.17,0.508
2015-09-11 04:16:00,2116E-3,5C000400,-0724,0822,12374,028.1,045.4,0.256,748.0,01.17,0.508
2015-09-11 04:17:00,1970E-3,5C000400,-0724,0823,12344,028.1,045.5,0.256,748.1,01.17,0.508
2015-09-11 04:18:00,2267E-3,5C000400,-0724,0823,12191,028.1,045.4,0.256,748.0,01.17,0.508
2015-09-11 04:19:00,1973E-3,5C000400,-0724,0823,12299,028.1,045.5,0.256,748.0,01.17,0.508
2015-09-11 04:20:00,2028E-3,5C000400,-0724,0822,12140,028.1,045.4,0.256,748.0,01.17,0.508